Погода в Дабуже

Россия / Калужская область     54°13′32″N   34°49′15″E
темп.,
°C
ветер,
м/с
пор.,
м/с
влажн.,
%
обл.,
%
осадки,
мм/ч
давл.,
гПа
погр.,
м
8 мая, сб
сб800:00+7юв2893100 1.5 1010333
03:00+8ююв51394100 5.3 1007900
06:00+8ююв51296100 1.8 1005695
09:00+8ююв4998100 5.2 1004567
12:00+9ююз2497100 3.4 1004306
15:00+9с1195100 5.4 100391
18:00+7ссз61095100 2.0 1003672
21:00+6ссз61294100 4.2 10051181
9 мая, вс
вс900:00+4сз81494100 4.5 10071003
03:00+3сз71388100 5.5 1010854
06:00+3сз61291100 0.1 1013884
09:00+4сз71084100 0.3 1015999
12:00+7ссз71063100 0.1 10171624
15:00+9сз595595 0.1 10191915
18:00+11сз585371 0.0 10201522
21:00+5сз38695 0.0 1023119
10 мая, пн
пн1000:00+3сз36734 0.0 102596
03:00+2ссз34755 0.0 102750
06:00+2с23747 0.0 102963
09:00+9ссв235110 0.0 1029462
12:00+13ссв233931 0.0 10291334
15:00+14св23365 0.0 10281648
18:00+14св24510 0.0 1028776
21:00+7всв22730 0.0 102917
11 мая, вт
вт1100:00+6всв33690 0.0 102943
03:00+4св34775 0.0 103058
06:00+4св310810 0.0 1030214
09:00+11всв510590 0.0 1029649
12:00+14всв68506 0.0 1028959
15:00+16всв67544 0.0 1027977
18:00+16в58685 0.0 1026921
21:00+11всв31086100 0.0 1026213
12 мая, ср
ср1200:00+9всв3109144 0.0 1026193
03:00+9св4128917 0.0 1024277
06:00+9всв41091100 0.0 1023280
09:00+10св41194100 0.2 1022440
12:00+12всв71595100 3.7 10201042
15:00+11ююв468244 5.4 1023513
18:00+13вюв367011 0.0 1023995
21:00+9всв499042 0.0 1022163